Theta_e
282 281 281 280 280 280 279 279 279 279 278 278 278 278 278 277 277 278 279 279 280 279 279 279 278 277 277 277 277 277 277 277 277 277 277 277 278 278 278 278 278 278
281 280 280 279 279 279 279 279 278 278 277 277 277 277 277 277 277 278 278 279 278 278 278 277 277 276 276 276 276 276 277 277 277 277 277 277 277 277 278 278 278 278
281 280 280 279 279 279 278 278 277 277 277 277 276 276 276 276 276 277 278 278 277 277 277 276 276 276 276 276 276 276 276 276 276 276 276 277 277 277 277 277 277 277
280 280 280 279 279 278 277 277 277 276 276 276 276 276 276 276 276 277 277 277 277 276 276 275 275 275 275 275 275 275 276 276 276 276 276 276 276 276 277 276 277 276
280 280 279 279 278 278 277 277 277 276 276 276 276 275 275 276 276 277 277 276 275 275 275 275 275 275 275 275 275 275 275 275 275 275 275 275 275 276 276 276 276 276
280 279 278 278 278 277 277 277 277 276 276 275 275 275 275 276 277 277 276 275 274 274 274 274 274 274 274 274 274 274 274 274 274 274 274 274 275 276 275 275 275 275
279 278 278 277 277 277 277 277 276 276 276 275 275 276 276 276 277 276 275 274 274 273 273 273 273 273 273 273 273 273 273 273 273 273 274 274 275 276 275 274 274 274
278 277 277 277 276 276 276 276 276 276 275 275 275 275 276 277 277 275 274 274 273 273 272 272 272 272 272 272 272 272 273 273 273 273 273 273 274 275 274 273 274 274
277 277 276 276 276 276 276 276 276 275 275 275 275 275 276 277 276 275 274 273 272 272 271 271 271 272 272 271 272 272 272 272 272 272 273 273 273 273 273 273 273 273
276 276 276 276 276 275 275 276 276 275 275 275 275 275 276 276 276 275 273 272 271 271 271 271 271 271 271 271 271 271 271 272 272 272 273 273 273 272 272 272 273 273
275 275 275 275 276 276 276 276 276 275 275 275 274 275 275 276 275 274 273 271 270 270 270 270 270 270 271 271 271 271 271 272 272 273 272 272 272 272 272 272 272 273
275 275 275 275 276 276 276 276 276 275 275 275 274 275 275 275 274 273 272 270 270 270 270 270 270 270 271 271 271 271 272 272 272 272 272 271 271 271 271 272 272 273
274 274 275 276 276 276 275 275 275 275 275 275 274 275 275 275 274 272 270 270 269 270 270 270 270 270 271 271 271 271 271 271 271 271 271 271 271 272 272 272 273 273
274 275 275 275 275 275 275 275 275 275 275 274 275 275 275 275 273 271 269 269 269 270 270 270 270 270 270 271 271 271 271 271 271 271 272 272 272 273 273 273 274 274
274 275 275 275 274 274 274 274 274 274 274 274 275 275 275 274 272 270 269 269 269 270 270 270 270 270 270 270 270 271 271 272 272 272 273 273 273 273 274 274 275 275
274 275 275 274 274 273 273 274 274 274 274 274 274 275 275 273 270 269 269 269 269 270 270 270 270 270 270 270 271 272 272 273 273 273 273 274 274 275 275 275 276 276
274 274 274 274 273 273 274 274 274 274 274 274 274 275 274 271 269 268 269 269 269 269 269 269 269 269 270 271 272 273 273 273 274 274 274 275 276 276 276 277 277 277
274 274 273 273 273 273 273 274 274 273 273 274 274 273 271 269 268 268 268 268 268 268 269 269 269 269 270 271 272 273 274 274 275 275 275 276 276 277 277 277 277 278
273 273 273 273 273 273 273 273 273 272 272 273 273 271 268 268 268 268 268 268 268 268 268 268 268 269 270 271 272 273 274 275 275 276 276 276 276 276 276 276 277 277
273 273 273 273 273 273 273 272 272 271 272 273 271 268 267 267 267 267 267 267 267 267 267 267 268 269 270 271 273 274 275 275 276 276 276 276 276 275 275 276 276 276
272 272 272 272 272 272 272 271 271 271 272 271 268 266 266 267 267 267 267 267 266 267 267 267 268 269 270 272 273 274 275 275 275 275 275 275 275 275 275 275 276 276
272 272 272 272 272 272 272 271 271 271 270 268 266 266 266 266 266 267 266 266 266 267 267 267 268 269 271 272 273 274 275 275 275 275 275 275 275 275 275 275 275 276
272 272 272 272 272 271 271 271 271 270 268 266 265 265 265 266 266 266 266 266 266 267 267 268 269 270 271 272 273 274 275 275 275 275 274 275 275 275 275 275 276 276
272 272 272 272 271 271 270 270 270 269 267 265 265 265 265 265 265 265 266 266 267 267 268 269 270 270 271 272 273 274 274 275 274 275 275 275 275 275 275 275 276 276
272 271 271 271 270 270 270 270 270 269 266 265 264 264 265 265 265 265 265 266 267 268 269 269 270 270 271 272 273 274 274 274 275 275 275 275 275 275 275 275 275 276
271 271 271 270 269 269 269 269 269 268 266 265 265 264 264 265 265 265 266 267 268 268 269 270 270 270 271 272 273 273 274 275 275 275 275 275 275 275 275 275 275 275
Wind_Speed
23 21 19 17 16 16 15 15 15 15 15 15 15 15 16 18 20 20 21 23 24 26 27 28 28 28 29 28 26 25 25 25 26 25 25 26 27 28 29 30 32 33
24 22 20 17 17 16 16 15 15 16 16 16 16 16 17 18 19 20 21 23 24 25 26 26 27 27 26 26 25 24 25 25 26 25 25 27 27 27 29 30 33 34
24 22 21 19 18 17 15 15 15 16 16 16 16 16 17 18 18 20 21 23 24 25 25 24 25 25 25 25 24 24 25 26 26 25 26 27 27 28 29 30 32 33
24 22 21 19 18 16 15 15 15 14 14 15 16 16 17 17 17 19 21 23 23 23 23 21 22 23 24 24 23 24 25 25 26 26 26 27 27 27 28 29 32 32
23 21 20 18 17 15 14 14 14 13 14 15 16 16 16 17 18 19 21 21 20 19 19 20 21 22 22 23 23 24 25 25 25 25 26 27 26 26 28 29 31 31
22 20 19 17 16 14 13 13 12 13 13 14 15 16 17 17 20 21 21 19 17 17 18 20 20 21 22 22 22 24 24 24 25 24 26 27 27 27 29 30 30 31
21 19 18 16 14 13 12 11 11 12 13 14 15 16 17 19 21 21 21 21 20 19 19 20 21 22 21 21 22 23 24 24 25 25 26 27 28 30 30 29 30 31
19 18 16 15 13 11 10 10 10 11 12 13 15 16 18 20 21 22 22 23 22 22 20 20 21 21 21 20 21 23 23 24 24 24 26 27 29 31 30 29 30 31
18 17 15 13 11 10 9 9 9 10 11 13 15 16 18 20 21 22 23 23 22 22 21 20 20 21 20 21 22 23 24 24 24 24 26 29 30 30 29 29 29 31
17 15 14 12 10 9 8 8 8 10 11 13 14 15 18 20 21 22 23 22 20 20 20 20 21 21 21 22 22 23 24 24 25 26 28 30 30 30 29 29 30 30
17 15 13 11 10 9 7 7 8 9 10 12 14 15 17 19 21 22 22 20 19 20 21 21 22 22 22 23 23 23 25 26 26 28 30 30 29 29 29 29 31 32
16 15 13 11 10 8 7 7 8 9 10 12 13 15 17 19 20 22 21 19 19 20 21 22 22 22 22 23 24 25 26 26 27 28 29 29 29 29 30 31 32 33
16 15 13 11 10 8 7 7 7 8 10 12 13 15 17 19 20 21 20 19 20 21 21 22 22 22 22 23 24 25 26 26 27 28 29 29 29 31 32 33 35 36
16 15 13 11 9 8 7 7 7 8 10 12 13 15 16 18 19 19 19 19 20 21 21 22 22 23 23 23 24 25 26 27 27 28 29 30 31 32 33 34 36 37
17 15 13 11 9 7 7 7 7 8 10 11 13 14 16 18 18 18 18 19 19 19 20 21 22 23 22 22 24 26 26 27 27 27 28 30 33 34 35 36 37 38
17 15 12 10 9 8 7 7 7 8 10 11 12 14 16 17 17 17 17 17 18 19 20 21 22 22 23 24 26 28 29 29 30 30 30 30 32 33 34 35 37 38
17 15 13 11 9 8 7 7 7 8 9 10 12 14 15 15 16 16 16 16 17 19 20 22 23 25 25 26 28 29 30 31 32 32 31 31 32 33 33 35 35 36
17 15 13 11 9 8 7 6 6 8 9 10 12 14 14 14 15 16 16 17 17 18 21 22 26 28 28 28 30 31 31 31 32 32 32 32 33 34 35 35 35 34
17 15 13 11 10 8 6 5 6 7 8 10 11 12 12 13 15 16 17 17 17 19 22 23 27 30 29 29 31 32 32 32 31 31 32 33 34 34 35 35 35 35
17 15 13 11 10 8 6 5 5 6 7 9 10 10 10 12 15 17 18 18 19 21 22 23 27 31 30 30 32 33 33 32 31 31 33 33 33 34 35 35 34 34
17 15 13 11 10 8 6 5 4 5 6 7 8 9 10 12 14 15 17 18 18 19 21 24 28 29 29 30 32 33 34 32 30 31 32 32 33 34 34 35 34 34
17 16 14 11 10 8 5 4 3 4 5 5 7 8 10 11 12 14 17 19 20 22 25 27 28 26 27 29 31 33 33 30 27 28 29 31 34 34 35 35 34 34
17 15 14 12 10 8 5 3 2 3 4 4 6 8 9 11 12 13 15 18 23 26 27 28 27 25 26 29 30 32 32 28 26 26 28 31 34 34 35 35 33 34
18 15 14 12 10 8 5 3 1 2 3 4 5 7 10 11 12 12 14 18 24 27 26 25 24 24 25 27 29 31 31 28 27 27 27 30 33 34 34 35 35 35
18 15 14 11 9 7 5 2 0 2 3 4 5 7 10 10 10 11 14 18 22 24 22 22 23 24 25 27 29 31 30 29 28 27 27 29 32 34 35 35 36 36
17 15 13 10 8 6 3 2 1 2 4 5 6 8 8 9 9 12 16 18 19 19 19 20 22 25 26 27 29 31 31 32 30 26 26 29 31 33 35 36 35 35
Wind_Direction
214 216 219 221 226 232 236 241 246 252 259 265 268 270 273 281 293 305 312 314 313 310 307 306 303 299 297 292 283 275 273 272 270 268 266 264 264 262 261 262 264 264
213 216 218 220 225 231 238 243 248 255 263 270 270 269 272 282 296 308 314 315 313 309 306 303 299 295 290 283 277 273 272 271 269 268 268 266 263 263 264 266 267 266
212 216 218 221 226 231 239 244 251 260 268 274 272 270 274 284 298 311 316 316 312 308 303 298 294 289 282 275 272 272 270 269 269 269 269 266 264 265 267 269 269 266
211 215 219 223 228 233 239 245 254 262 268 273 273 274 281 290 303 315 318 316 311 305 298 291 286 282 278 274 272 271 269 268 269 268 268 267 265 267 270 270 269 265
210 214 219 223 228 234 241 249 259 266 270 274 277 282 289 298 310 317 318 314 305 296 289 285 281 277 277 277 274 272 271 270 270 268 268 268 268 270 272 271 268 264
209 213 217 223 228 234 243 252 263 270 275 281 286 292 299 308 318 321 317 309 299 289 285 283 281 279 278 277 274 273 271 271 271 270 269 270 273 274 272 269 266 265
208 212 216 222 228 235 245 256 267 275 281 288 295 301 308 317 323 321 314 308 303 297 289 283 282 280 279 277 274 274 271 270 272 271 269 271 276 277 273 267 265 265
206 211 215 220 227 236 249 260 271 280 285 295 303 308 316 324 324 318 313 310 306 301 294 286 283 282 280 278 277 275 273 272 273 274 273 275 278 277 271 267 266 265
205 210 214 220 227 235 249 262 273 283 292 302 308 313 321 325 322 315 313 311 304 299 294 287 285 285 282 281 279 277 277 275 276 277 278 280 279 275 271 269 268 266
204 208 211 218 224 233 247 262 276 288 300 307 308 313 320 321 318 316 314 309 299 294 293 289 288 288 286 284 282 279 280 280 280 282 281 281 280 276 272 270 269 268
202 205 209 213 220 230 246 262 279 291 300 306 307 311 318 318 317 316 313 305 295 292 292 291 291 291 288 287 285 283 284 283 285 286 282 280 278 274 273 272 271 270
198 202 206 211 219 229 244 260 276 290 298 304 306 311 317 317 315 316 312 302 294 293 292 291 292 291 289 289 289 288 288 286 287 288 283 280 278 274 273 273 273 272
196 201 205 210 218 226 241 259 274 290 299 304 307 312 317 316 315 314 309 301 297 297 295 292 292 291 290 292 292 292 290 289 289 288 284 281 279 277 274 273 272 271
195 200 204 209 217 225 241 260 276 291 298 302 307 313 315 316 316 312 305 301 300 298 295 294 293 291 290 292 294 295 293 291 290 288 285 283 281 280 277 274 273 270
194 198 202 208 216 227 243 260 275 289 296 301 308 314 315 316 317 314 306 301 298 296 294 294 293 290 290 291 294 297 296 293 291 288 286 284 281 279 276 273 273 271
192 196 199 205 215 225 240 258 275 286 293 302 309 314 316 319 320 316 307 299 295 296 295 294 292 289 290 292 294 297 297 296 294 290 287 284 280 277 273 271 271 270
190 193 196 203 213 224 237 255 273 282 293 305 312 315 318 321 319 310 302 297 294 295 296 295 293 293 295 296 297 299 299 298 295 292 289 286 285 283 279 278 277 274
188 191 195 201 210 221 232 251 269 283 300 310 313 317 319 318 314 306 301 301 296 295 296 294 295 299 300 299 301 303 303 301 297 294 292 291 289 289 287 286 286 284
188 189 192 199 206 215 225 247 269 286 306 314 317 319 314 308 309 307 305 304 298 298 297 293 297 305 304 302 305 306 306 305 301 296 295 294 292 292 291 290 289 288
186 186 190 196 201 208 219 241 269 292 311 319 319 314 305 303 307 308 307 305 302 302 300 295 301 308 307 304 308 310 309 308 305 300 299 296 294 293 292 290 288 287
184 185 188 193 197 203 214 234 270 302 316 321 314 302 299 302 305 306 306 304 302 301 299 297 302 306 305 306 310 312 312 311 306 303 302 298 296 294 292 290 289 286
182 183 186 190 193 197 206 222 267 312 324 318 304 296 298 301 302 301 303 305 308 309 305 303 304 304 305 309 313 313 314 312 307 304 302 298 297 295 293 291 288 286
181 182 185 188 190 194 201 209 259 321 329 313 296 293 296 301 301 297 297 303 311 315 311 304 303 304 307 310 314 315 315 313 308 304 299 297 297 296 295 293 290 287
179 181 184 186 187 189 191 196 249 322 331 313 297 297 303 307 304 295 294 303 311 315 312 303 300 304 309 311 315 317 317 315 310 305 299 297 300 300 298 297 293 290
177 180 181 182 183 183 179 174 253 344 340 316 305 311 315 313 302 291 295 303 308 309 306 301 301 305 310 313 316 318 319 317 312 306 301 301 303 303 302 300 297 294
176 177 177 175 175 173 164 136 41 356 340 324 323 324 318 311 308 303 300 301 301 300 300 301 303 305 310 315 318 319 321 320 316 310 306 306 307 306 305 303 300 297